Погода в Щербакуле

Погода в Щербакуле : погода сейчас, прогноз погоды и архив. Всё, что Вы хотите узнать о погоде в Щербакуле!

Хотите узнать прогноз погоды в Щербакуле? Тогда Вам сюда: Погода в Щербакуле

Поиск расширенной информации на нашем сайте:

Другие новости

Новости СМИ2

Главная страница сайта

Новости сайта

02.10.2013

Напоминаем, что на нашем новом сайте вы можете получить высокодетализированные прогнозы погоды по пунктам России, СНГ и мира (включающие важные для авиации метеовеличины, такие как направление и скорость ветра, видимость, явления погоды, количество и форма облачности, нижняя и верхняя граница облачности), а также ознакомиться с разнообразными материалами по авиационной метеорологии и подборкой полезных ссылок на эту тему.

Сайт Метеоцентр.Азия посвящён разработке технологий оптимизации авиаметеорологического обслуживания, включая проектирование и перспективное создание нескольких автоматизированных авиаметеорологических систем:
- система выпуска высокодетальных прогностических карт явлений погоды для нижнего воздушного пространства по России и ближнему зарубежью;
- система верификации прогнозов TAF (выпускаемых синоптиками официальных АМСГ РФ и ближнего зарубежья) и AUTOTAF (выпускаемых сайтом Метеоцентр.Азия) - выявление ошибок, онлайн-сопоставление с фактической погодой METAR, автоматическое внесение коррективов в прогнозы при резком отклонении фактической погоды от прогноза, подсчёт оправдываемости прогнозов по элементам и в целом;
- система обработки, анализа и отображения авиаметеорологической информации для применения провайдерами метеорологической информации.

Рекомендуем: http://www.italyvisa.ru Документы необходимые для оформления визы в Италию

Погода в Щербакуле - сегодня

Время (UTC), дата Ветер
(°,м/с) 
Видим.   Явления Облачность Т
(°С)
Тd
(°С)
f(%) Тe
(°С)
Pmin
(гПа)
dP
(гПа)
Po
(мм)
O2
(г/м3)
Тmin Tmax R s Состояние
почвы
03 25.05.17 250 (З) 8-12{11}  20000 м    ясно 
+13.3 +0.4 41 +12  1013.1  0.1  750  288  +5.1        сухая 
06 25.05.17 260 (З) 9-15{17}  20000 м    8/8 600 м кучево-дожд. 
[Cb cap]
+16.8 -1.7 28 +16  1012  -1  749  284           
12 25.05.17 310 (СЗ) 8-13{18}  20000 м    3/3 1000 м 
[Cu hum]
+17.6 -1.2 28 +17  1012.8  1.7  750  284           
15 25.05.17 330 (СЗ) 4{13}  20000 м    1/0 верхняя 
[Ci fib]
+13.3 -5.5 27 +13  1015.2  2.1  751  289    +18.9       
18 25.05.17 350 (С) 20000 м    ясно 
+7.8 -2.1 50 +9  1018.3  2.7  753  295           
21 25.05.17 320 (СЗ) 20000 м    ясно 
+2.2 -1.6 76 +3  1020.8  2.2  755  302           
00 26.05.17 270 (З) 20000 м    ясно 
+2.7 -1.4 74 +3  1023.1  2.3  757  302           
03 26.05.17 290 (З) 20000 м    ясно 
+12.5 -4.2 31 +13  1024.6  1.9  758  293  +1.2        сухая 
06 26.05.17 310 (СЗ) 20000 м    ясно 
+14.9 -4.5 26 +15  1025.3  0.8  759  290           
09 26.05.17 310 (СЗ) 20000 м    ясно 
+17.1 -4.6 22 +19  1024.3  -0.8  758  288           
12 26.05.17 190 (Ю) 20000 м    ясно 
+18.7 -3.9 21 +20  1023.2  -1  757  286           
15 26.05.17 170 (Ю) 20000 м    ясно 
+15.5 -3.4 27 +16  1022.3  -1.1  757  289    +18.9       
18 26.05.17 160 (Ю) 20000 м    ясно 
+10.8 -1.7 42 +10  1022.1  -0.3  756  293           
21 26.05.17 160 (Ю) 20000 м    ясно 
+6.9 -0.6 59 +8  1021.5  -0.8  756  297           
00 27.05.17 190 (Ю) 20000 м    ясно 
+11 -0 47 +10  1020.7  -0.6  755  292           
03 27.05.17 180 (Ю) 6{11}  20000 м    ясно 
+17.2 -0.3 30 +17  1019.3  -1  754  286  +5.8        сухая 
15 27.05.17 140 (ЮВ) 7{13}  20000 м    10/10 630 м кучево-дожд. 
[Cb cap]
+20.4 +5.5 38 +20  1007.9  -2.7  746  279    +25.1       
00 28.05.17 130 (ЮВ) 20000 м    10/4 600 м средняя 
[Sc|Ac As]
+16.5 +5.1 47 +16  1000.4  -2.1  740  281           
03 28.05.17 200 (Ю) 7{10}  20000 м    9/3 600 м кучево-дожд., средняя 
[Cb cap|Ac cast]
+20.8 +10 50 +22  998.7  -1.5  739  275  +15.6         
15 28.05.17 270 (З) 5{14}  20000 м  {ливн. осадки}  9/9 660 м кучево-дожд. 
[Cb cap]
+18.5 +10.4 59 +21  998.9  1.9  739  277    +25.3  0.0     
18 28.05.17 220 (ЮЗ) 20000 м  {ливн. осадки}  3/3 600 м 
[Sc diur, vesp]
+11.4 +8.6 83 +11  1000.8  1.5  740  285           
21 28.05.17 240 (ЮЗ) 20000 м    ясно 
+13.2 +9.9 80 +14  1001.4  0.7  741  283           
00 29.05.17 240 (ЮЗ) 20000 м    4/0 верхняя 
[Ci fib]
+13.2 +10.3 83 +15  1002.2  0.8  742  283           
03 29.05.17 230 (ЮЗ) 20000 м    10/0 средняя, верхняя 
[Ac cast|Ci]
+18.4 +11.8 65 +24  1002.1  0.2  742  278  +11.4         
06 29.05.17 230 (ЮЗ) 20000 м    10/8 600 м кучево-дожд., средняя, верхняя 
[Cb cap|Ac cast|Ci fib]
+22.8 +10.2 45 +24  1001.1  -0.8  741  274           
Время (UTC), дата Ветер
(°,м/с) 
Видим.   Явления Облачность Т
(°С)
Тd
(°С)
f(%) Тe
(°С)
Pmin
(гПа)
dP
(гПа)
Po
(мм)
O2
(г/м3)
Тmin Tmax R s Состояние
почвы

Для получения пояснительной информации подведите курсор к названию столбца.

ПОГОДА в Щербакуле - архив

Всё, что Вы хотите узнать о погоде в Щербакуле - удобно и подробно!

Выберите нужную дату (начиная с 1 января 2015* года) и нажмите кнопку "Найти".
Будут отображены архивные сводки погоды по пункту Щербакуль, начиная с указанной даты.


Отображать данные в формате CSV (для использования в таблицах Excel)


Внимание! Наш архив погоды предназначен исключительно для личного некоммерческого использования в познавательных целях. Если Вам необходимы официальные справки о состоянии погоды (для производственных, юридических, коммерческих и т.п. целей), обращайтесь в органы Росгидромета.

*Примечание: данная дата относится к архиву по метеостанциям СССР (Россия, СНГ, Балтия).
Архив по метеостанциям Зарубежной Европы и Азии (кроме Китая) хранится 10 дней, по другим регионам земного шара (Китай, Африка, Америка, Австралия, Океания) - 1 день.

Щербакуль - район местоположения метеостанции


Название, широта, долгота, высота метеостанции:
Щербакуль 54.6°ш. 72.4°д. 115 м над ур. моря [Российская Федерация]

Дополнительная информация

В oтличие oт бoльшинства пoгoдных сайтoв мы публикуем пoдрoбную метеoинфoрмацию в детальнoм прoфессиoнальнoм фoрмате.

Характеристики температуры и влажнoсти вoздуха измеряются на высoте 2 м в тени вдали oт зданий и деревьев.
Скoрoсть ветра измеряется на высoте 10 м (на урoвне рoста челoвека скoрoсть ветра ниже в 1.5-2 раза). Если метеoстанция нахoдится в гoрoде или в лесу, тo скoрoсть ветра занижена на 2-4 м/с пo сравнению с oткрытым местoм. Скoрoсть ветра над акватoриями крупных рек и oзёр, а также на вершинах хoлмoв на 2-5 м/с выше, чем в oбычных услoвиях.
Атмoсфернoе давление в разных тoчках местнoсти мoжет значительнo oтличаться oт давления на метеoстанции, в зависимoсти oт услoвий рельефа (при пoдъёме на 10 м давление пoнижается примернo на 1 мм рт.ст.).